Location: D�vod
(45.9950°N, 18.9172°E)
Time: 11:26:08
(UTC+00:00)

Daily predictions for brighter satellites

Satellite Brightness Start Highest point End
(mag) Time Altitude Azimuth Time Altitude Azimuth Time Altitude Azimuth
ATLAS 5 CENTAUR R/B 3.9 16:11:06 10° WNW 16:13:41 15° NNW 16:16:29 10° NNE
Cosmos 1812 Rocket 4.2 16:10:55 10° N 16:14:55 34° ENE 16:18:52 10° SE
X-37B 0.8 16:12:10 10° W 16:15:20 74° S 16:18:32 10° E
ISS -2.6 16:14:19 10° WNW 16:17:26 33° N 16:20:33 10° ENE
Okean O Rocket 1.6 16:13:31 10° SSE 16:17:56 81° ENE 16:22:22 10° NNW
CZ-4C R/B 4.3 16:16:13 10° NW 16:20:05 17° N 16:24:25 10° NNE
Iridium 4 Rocket 4.3 16:15:59 10° NNE 16:20:40 30° ENE 16:24:59 10° SE
Meteor 2-13 Rocket 4.5 16:14:55 10° S 16:21:01 75° E 16:27:10 10° NNE
CZ-4 R/B 2.5 16:20:40 10° ESE 16:23:46 22° ENE 16:26:51 10° NNE
USA 234 4.2 16:19:28 10° NE 16:25:20 37° N 16:31:11 10° WNW
SKYMED 2 4.2 16:21:28 10° NNE 16:25:31 37° E 16:29:32 10° SSE
ERS-2 3.6 16:25:23 10° NE 16:28:02 19° E 16:30:40 10° SE
Cosmos 2278 Rocket 3.0 16:24:08 10° SSE 16:29:07 32° ESE 16:34:05 10° NE
Okean-O 3.6 16:26:09 10° ESE 16:29:47 25° ENE 16:33:25 10° N
CZ-2C R/B 3.4 16:29:26 10° SE 16:34:45 52° ENE 16:40:18 10° N
Cosmos 1346 Rocket 4.0 16:32:38 10° SE 16:35:42 22° E 16:38:47 10° NE
NOSS 2-1 (E) 2.9 16:32:24 10° SW 16:35:42 84° NW 16:39:13 10° NE
Cosmos 1340 2.8 16:32:08 10° S 16:35:47 53° E 16:39:27 10° NNE
CZ-4B R/B 3.9 16:30:51 10° S 16:36:23 64° WSW 16:42:02 10° NNW
COSMOS 2455 4.3 16:31:11 10° WSW 16:36:33 33° NW 16:41:58 10° NNE
SMAP 4.4 16:36:26 10° S 16:40:52 45° W 16:45:21 10° NNW
ARGOS 3.9 16:43:27 10° ESE 16:48:02 30° ENE 16:52:39 10° N
Cosmos 1455 3.5 16:44:22 10° NNW 16:48:02 45° W 16:51:43 10° SSW
Cosmos 405 3.0 16:45:07 10° N 16:48:36 52° ENE 16:52:02 10° SSE
Cosmos 1626 Rocket 3.8 16:45:38 10° SSW 16:50:01 72° W 16:54:30 10° N
Cosmos 1092 Rocket 3.9 16:44:34 10° S 16:50:44 79° E 16:56:53 10° N
Cosmos 1898 Rocket 3.6 16:48:23 10° SSW 16:53:38 80° WNW 16:58:53 10° NNE
Cosmos 372 Rocket 4.4 16:49:54 10° S 16:54:46 42° ESE 16:59:41 10° NE
CZ-2C R/B 3.8 16:53:10 10° NE 16:57:27 22° E 17:01:44 10° SE
PSLV R/B 4.4 16:53:40 10° NNE 16:57:39 39° E 17:01:36 10° SSE
TELKOM 3 3.6 16:56:01 10° WNW 16:58:05 35° NNE 16:58:27 32° NE
Cosmos 1328 3.8 16:58:17 10° S 17:02:16 82° W 17:06:16 10° N
CZ-4B R/B 1.6 17:01:17 10° N 17:04:34 68° WNW 17:07:45 10° SSW
CZ-2D R/B 3.3 17:00:59 10° S 17:04:48 78° WSW 17:08:39 10° NNW
MOS 1 Rocket 3.0 17:02:01 10° NNE 17:06:19 80° ESE 17:10:40 10° S
Meteor 2-15 4.4 17:00:39 10° N 17:06:48 67° ENE 17:12:54 10° SSE
Meteor 1-11 4.2 17:02:52 10° S 17:08:29 67° E 17:14:04 10° NNE
Meteor 2-8 Rocket 4.5 17:03:03 10° N 17:09:11 85° W 17:15:19 10° S
Cosmos-2242 2.9 17:05:57 10° N 17:10:14 67° E 17:14:32 10° SSE
COSMO-SKYMED 1 2.8 17:09:19 10° N 17:13:39 70° WNW 17:17:58 10° SSW
Cosmos 1937 Rocket 3.8 17:11:01 10° SSW 17:16:19 71° WNW 17:21:39 10° NNE
Cosmos 1758 Rocket 3.5 17:12:14 10° S 17:16:42 88° E 17:21:14 10° N
BREEZE-M DEB (TANK) 2.0 17:14:50 10° WNW 17:16:58 54° NNE 17:17:14 50° NE
Cosmos 2098 Rocket 4.3 17:09:56 10° S 17:17:22 83° E 17:24:33 10° N
CSL-04 Debris 4.2 17:16:18 10° SE 17:21:31 54° ENE 17:26:46 10° N
USA 290 2.5 17:19:23 10° NNW 17:22:33 68° WSW 17:25:43 10° SSE
SL-08 RB Rocket 4.1 17:21:13 26° ESE 17:22:55 36° ENE 17:27:02 10° N
Cosmos 1833 Rocket 2.8 17:21:04 10° NNW 17:26:41 77° WSW 17:32:17 10° SSE
H-2A R/B 1.9 17:22:04 10° SSE 17:27:07 83° ENE 17:32:22 10° NNW
Cosmos 1125 Rocket 4.2 17:23:53 10° SSE 17:28:19 31° ESE 17:28:19 31° ESE
Cosmos 2266 Rocket 4.3 17:23:25 10° SSE 17:29:07 39° E 17:34:44 10° NNE
Helios 1A Rocket 2.8 17:25:37 10° SSE 17:29:44 72° ENE 17:33:53 10° N
Cosmos 2298 Rocket 4.2 17:25:38 10° S 17:30:41 47° ESE 17:33:00 29° NE
Cosmos 2344 4.5 17:24:21 10° NW 17:33:50 84° SW 17:47:11 10° SSE
Cosmos 2026 Rocket 4.4 17:28:41 10° SSW 17:34:46 64° W 17:41:01 10° N
USA 229 DEB 4.5 17:27:55 10° NW 17:35:06 59° WSW 17:42:38 10° SSE
USA 229 4.5 17:28:01 10° NW 17:35:13 60° WSW 17:42:46 10° SSE
CZ-3B R/B 2.8 17:33:16 10° WNW 17:36:19 68° SW 17:46:38 10° SE
SJ 16-02 4.2 17:35:48 10° W 17:37:52 13° NW 17:39:57 10° NNW
YAOGAN 1 2.8 17:34:30 10° S 17:38:48 70° WSW 17:43:09 10° NNW
Cosmos 1417 Rocket 4.4 17:33:29 10° N 17:39:46 81° E 17:46:04 10° S
Meteor 2-15 Rocket 4.4 17:33:42 10° N 17:39:54 88° W 17:46:03 10° S
SJ-11-01 4.3 17:35:54 10° SSE 17:40:35 82° WSW 17:45:18 10° NNW
In-Cosmos 22 Rocket 4.3 17:35:51 10° S 17:41:28 55° E 17:47:00 10° NNE
Cosmos 1689 Rocket 2.5 17:41:34 58° WNW 17:41:34 58° WNW 17:44:20 10° SSW
Cosmos 1553 Rocket 4.0 17:36:31 10° N 17:42:57 84° W 17:49:16 10° S
Aureole 3 Rocket 4.4 17:40:32 10° NNW 17:43:34 33° W 17:47:15 10° SSW
Cosmos 1943 Rocket 4.3 17:41:26 10° SSE 17:41:41 11° SSE 17:41:41 11° SSE
COSMOS 2406 4.2 17:40:24 10° NW 17:45:57 48° WSW 17:51:25 10° S
HJ-1C 3.7 17:47:04 59° NNW 17:47:04 59° NNW 17:49:53 10° NNW
Cosmos 2082 Rocket 2.1 17:40:48 10° NNW 17:46:34 86° ENE 17:51:40 13° SSE
Cosmos 1825 Rocket 4.1 17:44:18 10° SSW 17:48:37 59° WNW 17:53:00 10° N
Meteor 1-27 4.3 17:44:14 10° NNW 17:49:49 75° W 17:55:21 10° S
X-37B 2.0 17:48:52 10° W 17:51:36 33° SSW 17:51:36 33° SSW
deb Kosmos-1763 4.1 17:49:25 10° NNW 17:52:52 72° W 17:52:52 72° W
ISS -2.1 17:51:39 10° WNW 17:53:50 28° NNW 17:53:50 28° NNW
Meteor 2-21 4.4 17:49:07 10° S 17:55:02 58° E 18:01:03 10° NNE
MetOp-A 4.5 17:56:26 45° NE 17:56:26 45° NE 18:00:51 10° N
CZ-4 R/B 3.0 17:54:57 10° SSW 17:58:38 34° W 18:02:16 10° NNW
ATLAS 2AS CENTAUR R/B 4.4 17:53:05 10° NW 17:58:41 21° N 18:00:54 18° NNE
ATLAS 5 CENTAUR R/B 4.2 17:59:13 10° N 18:00:33 11° N 18:00:57 11° N
Cosmos 2315 Rocket 4.0 17:55:20 10° N 18:01:25 52° ENE 18:01:36 51° E
ERS-2 3.8 17:58:38 12° N 18:01:38 32° WNW 18:04:53 10° SW
Cosmos 883 Rocket 4.4 17:56:21 10° N 18:02:31 63° ENE 18:05:20 33° SSE
CSL-04 Rocket 3.8 17:57:18 10° S 18:02:45 77° WSW 18:08:18 10° NNW
Meteor 2-14 Rocket 4.3 17:57:08 10° S 18:03:05 64° E 18:09:08 10° NNE
Okean-O 4.2 18:02:00 10° SSW 18:06:05 36° W 18:10:12 10° NNW
USA 234 4.0 18:05:52 32° NE 18:07:23 36° N 18:13:14 10° NW
S3M 4.0 18:03:18 10° NNW 18:09:25 76° W 18:15:32 10° S
CZ-4C R/B 4.2 18:06:26 10° NNW 18:11:15 21° NNE 18:11:46 21° NNE
Cosmos 1655 Rocket 3.9 18:05:37 10° S 18:11:50 84° W 18:18:06 10° N
Cosmos 2278 Rocket 3.2 18:07:38 10° SW 18:13:03 43° NW 18:17:11 17° N
Cosmos 1953 Rocket 4.5 18:10:58 10° SSW 18:15:09 46° WNW 18:17:58 19° N
Cosmos 2292 Rocket 4.4 18:15:13 10° SSW 18:19:54 47° W 18:20:41 41° NW
Cosmos 44 Rocket 3.5 18:18:26 10° SW 18:23:19 70° WNW 18:23:19 70° WNW
ARGOS 4.2 18:23:02 10° S 18:28:07 43° W 18:33:15 10° NNW
Meteor 2-2 Rocket 4.5 18:25:04 10° NNW 18:31:02 74° W 18:34:20 28° S
NOSS 2-2 (D) 4.4 18:28:10 10° NW 18:33:29 80° NNE 18:33:29 80° NNE
CZ-2C R/B 3.2 18:33:45 17° N 18:38:06 60° WNW 18:43:37 10° SSW
ATLAS 2AS CENTAUR R/B 4.5 19:45:01 10° NNW 19:48:21 24° NNW 19:48:21 24° NNW
